EW8130 Weather Reports


time (UTC)temp
F
wind
direction
speed
knots
gust
knots
rain 1hr
in
rain 24hr
in
rain mn
in
humidity
%
barometer
mb
20260505200021 85 83 0.0 5.2 0.00 0.00 0.00 66 983.9
20260505194517 84 119 1.7 8.7 0.00 0.00 0.00 69 983.9
20260505193024 84 111 0.0 11.3 0.00 0.00 0.00 69 983.9
20260505191516 84 75 3.5 11.3 0.00 0.00 0.00 69 984.1
20260505190013 83 77 3.5 12.2 0.00 0.00 0.00 71 984.2
20260505184510 82 57 0.0 9.6 0.00 0.00 0.00 71 984.4
20260505183017 82 74 3.5 12.2 0.00 0.00 0.00 71 984.4
20260505181507 81 106 0.9 9.6 0.00 0.00 0.00 72 984.5
20260505180013 81 135 0.0 8.7 0.00 0.00 0.00 73 984.5
20260505174508 82 87 0.9 7.8 0.00 0.00 0.00 71 984.6
20260505173004 81 85 0.0 7.0 0.00 0.00 0.00 73 984.5
20260505171506 81 97 3.5 12.2 0.00 0.00 0.00 73 984.6
20260505170111 80 117 0.9 9.6 0.00 0.00 0.00 75 984.7
20260505164556 78 108 0.9 16.5 0.00 0.00 0.00 76 984.6
20260505163056 78 86 0.9 12.2 0.00 0.00 0.00 76 984.5
20260505161614 78 101 1.7 11.3 0.00 0.00 0.00 76 984.4
20260505153100 76 130 4.3 12.2 0.00 0.00 0.00 80 984.5
20260505151558 75 80 2.6 13.0 0.00 0.00 0.00 81 984.6
20260505124525 71 119 0.0 10.4 0.00 0.00 0.00 86 984.2
20260505123024 71 92 0.0 9.6 0.00 0.00 0.00 86 983.8
20260505121526 71 116 0.9 8.7 0.00 0.00 0.00 86 983.6
20260505120022 71 110 0.0 16.5 0.00 0.00 0.00 87 983.5
20260505114521 71 104 0.0 10.4 0.00 0.00 0.00 87 983.7
20260505113022 71 102 0.0 7.8 0.00 0.00 0.00 86 983.5
20260505111519 71 119 2.6 9.6 0.00 0.00 0.00 86 983.5
20260505101514 71 90 1.7 13.0 0.00 0.00 0.00 85 983.7
20260505100010 71 359 0.0 9.6 0.00 0.00 0.00 85 983.6
20260505094505 71 93 1.7 13.9 0.00 0.00 0.00 85 983.8
20260505093006 71 87 0.0 7.8 0.00 0.00 0.00 85 983.9
20260505091501 71 122 0.0 13.0 0.00 0.00 0.00 85 983.8
20260505090108 71 134 6.1 13.0 0.00 0.00 0.00 85 983.8
20260505084558 71 106 1.7 15.6 0.00 0.00 0.00 85 983.9
20260505083102 71 124 0.0 12.2 0.00 0.00 0.00 85 984.0
20260505081558 71 128 0.0 12.2 0.00 0.00 0.00 85 984.0
20260505080055 71 116 1.7 13.0 0.00 0.00 0.00 85 984.2
20260505074550 71 106 0.9 11.3 0.00 0.00 0.00 85 984.3
20260505073048 71 113 1.7 9.6 0.00 0.00 0.00 84 984.7
20260505071546 71 104 0.9 9.6 0.00 0.00 0.00 84 984.8
20260505070045 71 139 0.9 12.2 0.00 0.00 0.00 83 984.9
20260505064543 72 127 1.7 10.4 0.00 0.00 0.00 83 985.2
20260505063042 72 116 0.0 9.6 0.00 0.00 0.00 82 985.2
20260505061546 72 102 0.0 8.7 0.00 0.00 0.00 82 985.4
20260505060040 72 117 2.6 9.6 0.00 0.00 0.00 81 985.3
20260505054541 72 145 1.7 12.2 0.00 0.00 0.00 81 985.3
20260505053043 72 58 0.0 7.0 0.00 0.00 0.00 80 985.4
20260505051536 72 62 0.0 7.8 0.00 0.00 0.00 79 985.6
20260505041531 73 92 0.0 7.0 0.00 0.00 0.00 76 985.9
20260505040031 73 56 0.0 6.1 0.00 0.00 0.00 75 985.9
20260505034529 74 91 0.0 5.2 0.00 0.00 0.00 74 985.6
20260505033044 74 39 0.9 5.2 0.00 0.00 0.00 74 985.7
20260505031530 74 88 0.0 6.1 0.00 0.00 0.00 73 985.9
20260505030030 74 72 0.9 7.0 0.00 0.00 0.00 73 985.9
20260505024528 74 95 0.0 7.0 0.00 0.00 0.00 72 985.8
20260505023028 75 68 0.0 5.2 0.00 0.00 0.00 72 985.4
20260505021528 75 57 0.0 2.6 0.00 0.00 0.00 71 985.6
20260505020027 75 120 0.0 1.7 0.00 0.00 0.00 71 985.5
20260505014528 75 100 0.0 2.6 0.00 0.00 0.00 70 985.6
20260505013025 76 118 0.0 3.5 0.00 0.00 0.00 70 985.5
20260505011525 76 87 0.0 7.0 0.00 0.00 0.00 69 985.4
20260505010024 76 89 0.0 7.8 0.00 0.00 0.00 69 985.5
20260505004537 77 359 0.0 2.6 0.00 0.00 0.00 68 985.6
20260505003022 77 95 0.0 9.6 0.00 0.00 0.00 66 985.6
20260505001524 78 120 0.0 2.6 0.00 0.00 0.00 65 985.8
20260505000022 78 134 0.0 5.2 0.00 0.00 0.00 65 985.8
20260504234527 78 90 0.0 0.9 0.00 0.00 0.00 65 986.0
20260504233018 78 90 0.0 12.2 0.00 0.00 0.00 64 985.9
20260504231532 79 120 0.0 12.2 0.00 0.00 0.00 63 985.9
20260504230016 79 118 0.0 4.3 0.00 0.00 0.00 62 986.3
20260504224516 80 359 0.9 12.2 0.00 0.00 0.00 62 986.4
20260504223015 80 98 0.9 11.3 0.00 0.00 0.00 61 986.2
20260504221513 80 123 0.0 11.3 0.00 0.00 0.00 61 986.5
20260504220012 80 359 0.0 11.3 0.00 0.00 0.00 61 986.7
20260504214516 80 182 0.0 16.5 0.00 0.00 0.00 61 986.8
20260504213008 80 359 0.0 12.2 0.00 0.00 0.00 60 987.1
20260504211506 80 359 0.0 8.7 0.00 0.00 0.00 59 987.3
20260504210007 79 87 0.0 10.4 0.00 0.00 0.00 60 987.6
20260504204502 80 109 0.9 13.0 0.00 0.00 0.00 60 987.8
20260504203100 79 91 0.0 10.4 0.00 0.00 0.00 59 988.0
20260504201602 79 88 0.0 8.7 0.00 0.00 0.00 59 988.5